This demonstration page uses our WeatherBlox Daily Observations layout. Learn more.

Left ArrowRight Arrow

41.55636, -103.73856

Hourly Observations for July 22, 2020

Temp ( °F °C ) Dew Point ( °F °C ) Humidity (%) Winds ( mph kmh ) Pressure ( in mb ) Visibility ( mi km ) Precip ( " mm )
6:58 pm 18:58 Mostly Cloudy 79 26.1 52 11 39 39 SE 16 26 29.90 1013 10 16 0.00 0.00
7:58 pm 19:58 Mostly Cloudy with Showers and Scattered Storms 63 17 57 13.7 81 81 S 12 19 30.00 1016 10 16 0.05 1.27
8:58 pm 20:58 Mostly Cloudy with Nearby Thunderstorms 62 16.5 56 13.1 80 80 SSE 29 46 29.91 1013 10 16 0.03 0.76
9:58 pm 21:58 Mostly Cloudy 64 17.8 52 10.9 64 64 SSE 21 33 29.90 1013 10 16 0.00 0.00
10:58 pm 22:58 Mostly Cloudy 64 17.6 51 10.7 64 64 S 16 26 29.92 1013 10 16 0.00 0.00
11:58 pm 23:58 Mostly Clear 65 18.5 52 11.2 63 63 SSW 7 11 29.91 1013 10 16 0.00 0.00
12:58 am 00:58 Clear 63 17.1 53 11.8 71 71 NW 3 6 29.93 1014 10 16 0.00 0.00
1:58 am 01:58 Clear 63 17.4 52 11.3 68 68 WSW 3 6 29.93 1014 10 16 0.00 0.00
2:58 am 02:58 Clear 62 16.7 52 11.2 70 70 Calm 29.94 1014 10 16 0.00 0.00
3:58 am 03:58 Clear 60 15.8 53 11.6 76 76 WSW 6 9 29.93 1014 10 16 0.00 0.00
4:58 am 04:58 Clear 60 15.6 52 11.3 76 76 SSW 5 7 29.93 1014 10 16 0.00 0.00
5:58 am 05:58 Sunny 58 14.7 53 11.7 82 82 S 5 7 29.94 1014 10 16 0.00 0.00
6:58 am 06:58 Sunny 62 16.5 55 12.8 79 79 SSE 6 9 29.94 1014 10 16 0.00 0.00
7:58 am 07:58 Sunny 66 18.9 56 13.6 71 71 S 10 17 29.97 1015 10 16 0.00 0.00
8:58 am 08:58 Sunny 69 20.8 58 14.6 68 68 S 14 22 29.95 1014 10 16 0.00 0.00
9:58 am 09:58 Sunny 73 22.6 60 15.3 64 64 SSE 10 17 29.93 1014 10 16 0.00 0.00
10:58 am 10:58 Sunny 77 24.9 59 14.8 54 54 SSE 7 11 29.91 1013 10 16 0.00 0.00
11:58 am 11:58 Sunny 80 26.6 58 14.7 48 48 SSE 5 7 29.90 1013 10 16 0.00 0.00
12:58 pm 12:58 Sunny 83 28.3 58 14.7 43 43 SE 9 15 29.88 1012 10 16 0.00 0.00
1:58 pm 13:58 Sunny 86 29.8 58 14.3 39 39 SE 12 19 29.86 1011 10 16 0.00 0.00
2:58 pm 14:58 Sunny 87 30.4 58 14.3 37 37 SSE 9 15 29.86 1011 10 16 0.00 0.00
3:58 pm 15:58 Sunny 89 31.7 56 13.3 33 33 ESE 12 19 29.83 1010 10 16 0.00 0.00
4:58 pm 16:58 Sunny 87 30.7 54 12.3 32 32 SSE 12 19 29.83 1010 10 16 0.00 0.00
5:58 pm 17:58 Sunny 87 30.3 55 12.5 33 33 ESE 15 24 29.83 1010 10 16 0.00 0.00

Powered by AerisWeather